Notices

What's New in latest Release from April 7th, 2021:

- Updated Glossary, including Speed of Maximum Gust, and Total Hourly Precipitation

- Updated national and regional climate services offices contacts and prices information

- Addition of station inventory lists for 1981-2010, 1971-2000, and 1961-1990 Normals.

If you haven't already, please take our survey and provide feedback about our website: https://eccc.sondage-survey.ca/f/LanguageSelection.aspx?s=442ca660-fcf1-47c0-95a9-59707d6fd709

Hourly Data Report for May 12, 2020

TRENTON A
ONTARIO
Current Station Operator: DND

44°07'00.000" N
77°32'00.000" W
86.30 m
6158875
71621
YTR

Download Data

Hourly Data (May 2020)
Hourly Data Report for May 12, 2020
TIME
LST
Temp Definition
°C
Dew Point Definition
°C
Rel Hum Definition
%
Precip. Amount Definition
mm

Wind Dir Definition
10's deg

Wind Spd Definition
km/h
Visibility Definition
km
Stn Press Definition
kPa
Hmdx Definition


Wind Chill Definition


Weather Definition


00:00 1.8 -4.9 58   31 15 24.1 100.55     Mainly Clear
01:00 1.2 -4.8 61   30 11 24.1 100.58     Mainly Clear
02:00 0.7 -4.5 65   31 9 24.1 100.63     Mainly Clear
03:00 0.2 -4.8 66   30 11 24.1 100.68     Mainly Clear
04:00 -0.4 -4.8 69   30 4 24.1 100.69   -2 Clear
05:00 -0.7 -4.8 71   32 5 24.1 100.72   -2 Clear
06:00 0.6 -4.1 68   25 4 24.1 100.76     Mainly Clear
07:00 2.6 -4.9 55   28 11 24.1 100.79     Mainly Clear
08:00 3.8 -6.0 46   27 17 24.1 100.80     Mostly Cloudy
09:00 5.2 -5.0 45   24 11 24.1 100.76     Mostly Cloudy
10:00 6.0 -5.7 40   28 26 24.1 100.74     Mostly Cloudy
11:00 7.0 -5.4 39   28 22 24.1 100.71     Mostly Cloudy
12:00 7.4 -4.9 39   27 34 24.1 100.69     Mostly Cloudy
13:00 8.0 -5.9 35   30 37 24.1 100.71     Cloudy
14:00 7.7 -6.0 35   28 46 24.1 100.73     Cloudy
15:00 8.1 -5.4 36   29 35 24.1 100.76     Mostly Cloudy
16:00 7.6 -3.5 44   35 26 24.1 100.80     Mainly Clear
17:00 7.5 -4.8 39   29 24 24.1 100.86     Mainly Clear
18:00 7.2 -6.4 35   30 24 24.1 100.92     Mainly Clear
19:00 6.5 -7.4 34   30 18 24.1 100.98     Mainly Clear
20:00 4.7 -6.9 40   30 11 24.1 101.03     Mainly Clear
21:00 3.4 -7.2 43   29 8 24.1 101.10     Mainly Clear
22:00 2.7 -6.8 46   29 8 24.1 101.16     Mainly Clear
23:00 1.1 -7.2 50   31 5 24.1 101.20     Clear

Notes on Data Quality.

Legend

  • E = Estimated
  • M = Missing
  • NA = Not Available*
  • [empty] = Indicates an unobserved value
Date modified: